Location: Brunembert
(50.7122°N, 1.8935°E)
Time: 09:45:59
(UTC+00:00)

NOSS 2-1 (C) - Pass Details

Date: 22 April 2021
Orbit: 431 x 1771 km, 63.3° (Epoch: 13 May)

Event Time Altitude Azimuth Distance (km) Brightness Sun altitude
Exits shadow 21:56:10 42° 39° (NE) 655 3.8 -22.0°
Drops below altitude 10° 21:58:40 10° 43° (NE) 1,657 5.9 -22.2°
Sets 22:00:58 0° 44° (NE) 2,652 7.0 -22.4°
